www.pogodaiklimat.ru

Погода и климат >> Архив погоды >> Россия >> Ставропольский край >> Кисловодск


АРХИВ ПОГОДЫ в Кисловодске

Время (UTC), дата Ветер
(напр.,м/с)
 
Видим.   Явления Облачность Т
(С)
Тd
(С)
f
(%)
Тe
(С)
Тes
(С)
Комфортность P
(гПа)
Po
(гПа)
Тmin
(С)
Tmax
(С)
R
(мм)
R24
(мм)
S
(см)
18 11.01 Ю 3 10 км 10/10 600 м
[Sc]
+2.1 -6.3 54 -2 -2 по сезону 1016.6 905.6
21 11.01 Ю 3 10 км 10/10 600 м
[Sc]
+3.4 -7.3 45 0 0 тепло 1014.1 903.8
00 12.01 Ю 4 10 км 10/10 600 м
[Sc]
+4.6 -7.6 41 +1 +1 тепло 1012.0 902.4
03 12.01 ЮВ 1 10 км 10/10 600 м
[Sc]
+3.2 -7.4 46 +2 +2 тепло 1011.6 901.5 +1.3 1
06 12.01 СВ 1 10 км 9/9 600 м
[Sc]
+2.7 -7.8 46 +2 +2 тепло 1012.0 901.7
09 12.01 СЗ 1 10 км 10/0
[Ci fib]
+6.8 -7.0 37 +7 +10 тепло 1009.3 900.8
12 12.01 С 3 10 км 10/0
[Ci]
+4.8 -2.2 60 +2 +3 тепло 1010.3 901.0
15 12.01 ЮВ 1 10 км 10/0
[Ci]
+1.2 -2.7 75 -0 -0 тепло 1012.1 901.2 +9.0
18 12.01 штиль 0 10 км 10/10 600 м
[Sc]
-0.8 -2.6 88 -2 -2 по сезону 1013.0 901.3
21 12.01 З 1 10 км 10/0
[Ac und]
-1.5 -4.2 82 -4 -4 по сезону 1010.7 899.0
00 13.01 Ю 1 10 км 9/0
[Ac und]
-1.8 -4.2 84 -4 -4 по сезону 1008.3 896.7
03 13.01 Ю 2 10 км 3/0
[Ac und]
-2.4 -4.8 84 -6 -6 по сезону 1007.3 895.6 -3.0
06 13.01 Ю 1 10 км 10/10 300 м
[Sc]
-2.3 -4.0 88 -5 -5 по сезону 1008.9 897.1 -3.8
09 13.01 СЗ 1 10 км 8/3 600 м
[Sc Ac cast Cc]
+2.9 -2.7 67 +2 +4 тепло 1006.0 896.5
12 13.01 С 1 10 км 10/10 600 м
[Sc]
+1.5 -1.7 79 -0 -0 по сезону 1006.8 896.7
15 13.01 штиль 0 10 км 10/10 600 м
[Sc]
+0.4 -2.1 83 -1 -1 по сезону 1008.5 897.8 +3.5
18 13.01 З 1 2000 м дымка 10/10 300 м
[Sc]
-1.0 -1.7 95 -3 -3 по сезону 1008.8 897.5
21 13.01 штиль 0 500 м туман ?/? -1.6 -2.0 97 -3 -3 по сезону 1008.7 897.2
00 14.01 штиль 0 500 м туман ?/? -1.7 -2.1 97 -3 -3 по сезону 1008.3 896.8
03 14.01 штиль 0 2000 м в посл. час туман 10/10 300 м
[Sc]
-3.3 -4.0 95 -5 -5 по сезону 1008.4 896.2 -3.8
06 14.01 Ю 1 10 км {туман} 9/4 600 м
[Sc Ci fib]
-2.9 -5.0 85 -5 -5 по сезону 1008.8 896.7
09 14.01 С 1 10 км ясно +2.9 -3.7 62 +2 +7 тепло 1004.6 895.2
12 14.01 СЗ 1 10 км 3/0
[Ac cast]
+3.5 -1.8 68 +2 +4 тепло 1003.6 894.5
15 14.01 Ю 2 10 км 3/0
[Ac cuf]
-1.5 -3.3 88 -5 -5 по сезону 1007.0 895.7 +4.1
18 14.01 Ю 2 10 км 10/0
[Ac und]
-0.4 -8.4 55 -3 -3 по сезону 1006.5 895.6
21 14.01 Ю 3 10 км 10/3 600 м
[Sc Ac und]
+0.2 -8.9 50 -4 -4 по сезону 1006.3 895.6
00 15.01 Ю 4 10 км 10/0
[Ac und]
+2.1 -10.2 40 -2 -2 тепло 1004.9 895.1
03 15.01 Ю 3 10 км ясно -1.9 -10.0 54 -6 -6 по сезону 1007.5 895.9 -1.9
06 15.01 СВ 1 10 км 9/9 600 м
[Sc]
+0.4 -9.9 46 -1 -1 тепло 1007.8 897.0 -2.0
09 15.01 СЗ 1 10 км 10/0
[Ac und Ci fib]
+9.3 -11.0 23 +10 +13 тепло 1003.0 896.0
12 15.01 З 1 10 км 10/0
[Ac und Ci fib]
+11.1 -9.0 23 +12 +13 тепло 1001.5 895.4
15 15.01 Ю 2 10 км 10/0
[Ac und Ci]
+3.3 -7.0 47 +1 +1 тепло 1004.1 894.9 +11.1
18 15.01 З 1 10 км 4/0
[Ac trans]
+3.3 -7.0 47 +3 +3 тепло 1004.1 892.2
21 15.01 Ю 3 10 км 10/0
[Ac und]
+1.7 -7.8 49 -2 -2 тепло 1000.2 890.8
00 16.01 З 1 10 км 10/10 600 м
[Sc]
+5.2 -8.1 38 +5 +5 тепло 997.8 889.9
03 16.01 ЮВ 2 10 км 10/10 600 м
[Sc]
+5.3 -7.0 41 +4 +4 тепло 997.1 889.4 +0.8
06 16.01 Ю 3 10 км 9/9 600 м
[Sc]
+7.2 -8.4 32 +5 +5 тепло 997.1 890.0
09 16.01 СВ 1 10 км 10/3 1000 м
[Sc Ac und Ci fib]
+10.0 -5.3 34 +10 +12 тепло 998.0 891.8
12 16.01 С 2 10 км 10/10 600 м
[Sc]
-0.0 -3.3 78 -3 -3 по сезону 1005.2 894.7
15 16.01 С 1 10 км 10/10 600 м
[Sc]
-3.0 -5.7 82 -5 -5 по сезону 1010.2 897.9 +11.5
18 16.01 З 2 10 км 10/10 600 м
[Sc]
-4.9 -6.3 90 -9 -9 по сезону 1013.0 899.7
21 16.01 Ю 2 10 км 10/10 600 м
[Sc]
-5.2 -7.1 86 -9 -9 по сезону 1013.7 900.2
00 17.01 З 1 10 км {ливн. осадки} 10/10 600 м
[Sc]
-5.3 -7.3 86 -8 -8 по сезону 1014.8 901.1
03 17.01 С 1 10 км 9/9 600 м
[Sc]
-6.7 -8.5 87 -9 -9 по сезону 1015.7 901.3 -6.7 0.5 1
06 17.01 Ю 1 10 км 9/8 600 м
[Sc Ci fib]
-5.7 -7.7 86 -8 -8 по сезону 1017.9 903.7 -7.0
09 17.01 С 1 10 км 9/3 600 м
[Sc Ci]
-1.4 -7.6 63 -3 -0 по сезону 1016.7 904.3
12 17.01 С 2 10 км 10/10 600 м
[Sc]
-1.3 -7.2 64 -5 -5 по сезону 1017.9 905.4
15 17.01 ЮЗ 1 10 км 6/3 600 м
[Sc Ci fib]
-4.3 -8.0 75 -6 -6 по сезону 1021.0 907.0 -0.6
18 17.01 Ю 2 10 км ясно -7.3 -9.6 84 -12 -12 прохладно 1024.2 908.6
21 17.01 Ю 3 10 км ясно -7.8 -11.1 77 -13 -13 прохладно 1025.3 909.4
00 18.01 Ю 2 10 км ясно -8.3 -11.8 76 -13 -13 прохладно 1026.4 910.1
03 18.01 Ю 3 10 км ясно -8.7 -12.5 74 -14 -14 холодно 1026.6 910.2 -9.0
06 18.01 Ю 3 10 км ясно -6.5 -12.1 64 -12 -11 прохладно 1026.6 911.0
09 18.01 штиль 0 10 км ясно +3.2 -15.0 25 +3 +9 тепло 1021.7 910.4
12 18.01 С 1 10 км ясно +5.2 -13.1 25 +5 +7 тепло 1020.3 909.9
15 18.01 Ю 2 10 км 3/0
[Ci fib]
-2.8 -10.4 56 -6 -6 по сезону 1024.1 910.3 +5.5

 

Местоположение метеостанции Кисловодск (Ставропольский край, Россия): широта 43.90 долгота 42.72 высота над уровнем моря 943 м.

В архиве по умолчанию представлена погода в Кисловодске за последнюю неделю. Архивные данные за месяц целиком и за предыдущие месяцы, начиная с января 2011 года, Вы можете получить, выбрав интересующий диапазон дат из раскрывающегося списка и нажав кнопку "Ввод!".


*Определитесь, кто Вы:
робот инопланетянин человек

Внимание! Время в таблицах - всемирное. Для получения местного времени необходимо прибавить поправку, которая равна 3 ч.

Смотрите также архив погоды в соседних городах и на ближайших метеорологических станциях:

Погода в Шаджатмазе (Карачаево-Черкессия, Россия) (19 км)
Погода в Минеральных Водах (Ставропольский край, Россия) (47 км)
Погода в Тырныаузе (Кабардино-Балкария, Россия) (60 км)
Погода в Черкесске (Карачаево-Черкессия, Россия) (63 км)
Погода в Георгиевске (Ставропольский край, Россия) (64 км)
Погода в Архызе (Карачаево-Черкессия, Россия) (71 км)
Погода на Леднике Гарабаши (Карачаево-Черкессия, Россия) (73 км)
Погода в Терсколе (Кабардино-Балкария, Россия) (74 км)
Погода в Чегете (Кабардино-Балкария, Россия) (76 км)
Погода в Нальчике (Кабардино-Балкария, Россия) (84 км)

Пояснения к столбцам:

Ветер - указаны скорость ветра в м/с - средняя за 10 мин, порывы в срок и между сроками (в фигурных скобках) и направление, откуда дует ветер: С - северный, СВ - северо-восточный, В - восточный, ЮВ - юго-восточный, Ю - южный, ЮЗ - юго-западный, З - западный, СЗ - северо-западный.
Видимость - горизонтальная дальность видимости в метрах или километрах. При видимости от 1 до 10 км при отсутствии осадков обычно наблюдается дымка, при ухудшении видимости до 1 км и менее - туман. В сухую погоду видимость может ухудшаться дымом, пылью или мглою.
Явления - указаны атмосферные явления, наблюдавшиеся в срок или в последний час перед сроком; фигурными скобками обозначены явления, наблюдавшиеся между сроками (за 1-3 часа до срока); квадратными скобками обозначены град или гололедные отложения с указанием их диаметра в мм.
Облачность - указаны через наклонную черту общая и нижняя облачность в баллах и высота нижней границы облаков в метрах; квадратными скобками обозначены формы облаков: Ci - перистые, Cs - перисто-слоистые, Cc - перисто-кучевые, Ac - высококучевые, As - высокослоистые, Sc - слоисто-кучевые, Ns - слоисто-дождевые, Cu - кучевые, Cb - кучево-дождевые. Подробнее классификацию облаков см. в Атласе облаков (PDF).
T - Температура воздуха - температура, измеренная на высоте 2 м над землей.
Td - Температура точки росы - температура, при понижении до которой содержащийся в воздухе водяной пар достигнет насыщения.
f - Относительная влажность воздуха - влажноcть воздуха, измеренная на высоте 2 м над землей.
Te - Эффективная температура - температура, которую ощущает одетый по сезону человек в тени. Характеристика душности погоды. При расчете учитывается влияние влажности воздуха и скорости ветра на теплоощущения человека.
Tes - Эффективная температура на солнце - температура, которую ощущает человек, с поправкой на солнечный нагрев. Характеристика знойности погоды. Зависит от высоты солнца над горизонтом, облачности и скорости ветра. Ночью, в пасмурную погоду, а также при ветре 12 м/с и более поправка равна нулю.
P - Атмосферное давление - приведенное к уровню моря атмосферное давление.
Po - Атмосферное давление - измеренное на уровне метеостанции атмосферное давление.
Tmin - Минимальная температура - минимум температуры воздуха на высоте 2 м над землей.
Tmax - Максимальная температура - максимум температуры воздуха на высоте 2 м над землей.
R - Количество осадков - Количество выпавших осадков за период времени, мм. При наведении курсора мыши на число - период времени, за который выпало указанное количество осадков.
R24 - Количество осадков - Количество выпавших осадков за 24 часа, мм.
S - Снежный покров - Высота снежного покрова, см. При наведении курсора мыши на число - состояние снежного покрова и степень покрытия местности в баллах.